Retour au catalogue

COSMOS 1124 DEB

LostHEO
NORAD 32981·DEBRIS·🇷🇺 Russia

Lancé Aug 28, 1979 depuis Plesetsk Cosmodrome

Loading…

Prochains Passages (prochaines 24 heures)

TLE

PériméSource: Space-Track

Époque: Nov 18, 2010, 14:48 UTC

1 32981U 79077G   10322.61673781 -.00000048  00000-0  00000+0 0  9992
2 32981  70.8605 271.4751 4964611 103.2972  41.3490  1.99924610 24999

Suivez COSMOS 1124 DEB en temps réel avec AllMySat

Download on the App Store